This is the latest recevied weather packets stored in our database for station/object KC0RPY. If no packets are shown the sender has not sent any weather packets the latest 10 day(s).
| Time | Temp. | Humidity | Pressure | Rain* | Wind** | Luminosity | Snow |
|---|---|---|---|---|---|---|---|
| 1777564281 | 14.44° C | 62% | 1020.2 hPa | 0 mm | - | 300 W/m² | - |
| 1777563978 | 14.44° C | 62% | 1020.2 hPa | 0 mm | - | 295 W/m² | - |
| 1777563674 | 14.44° C | 61% | 1020.2 hPa | 0 mm | - | 298 W/m² | - |
| 1777563369 | 14.44° C | 61% | 1020.2 hPa | 0 mm | - | 262 W/m² | - |
| 1777563065 | 14.44° C | 63% | 1020.2 hPa | 0 mm | - | 237 W/m² | - |
| 1777562761 | 14.44° C | 61% | 1020.5 hPa | 0 mm | - | 253 W/m² | - |
| 1777562459 | 14.44° C | 62% | 1020.2 hPa | 0 mm | - | 691 W/m² | - |
| 1777562156 | 14.44° C | 63% | 1020.5 hPa | 0 mm | - | 280 W/m² | - |
| 1777561854 | 14.44° C | 63% | 1020.2 hPa | 0 mm | - | 295 W/m² | - |
| 1777561550 | 13.89° C | 62% | 1020.2 hPa | 0 mm | - | 356 W/m² | - |
| 1777561245 | 13.89° C | 62% | 1020.2 hPa | 0 mm | - | 269 W/m² | - |
| 1777560944 | 13.89° C | 64% | 1020.2 hPa | 0 mm | - | 274 W/m² | - |
| 1777560642 | 13.89° C | 63% | 1020.2 hPa | 0 mm | - | 293 W/m² | - |
| 1777560339 | 13.89° C | 64% | 1020.2 hPa | 0 mm | - | 599 W/m² | - |
| 1777560037 | 13.89° C | 64% | 1020.2 hPa | 0 mm | - | 500 W/m² | - |
| 1777559733 | 13.33° C | 65% | 1020.2 hPa | 0 mm | - | 197 W/m² | - |
| 1777559430 | 13.33° C | 64% | 1020.2 hPa | 0 mm | - | 216 W/m² | - |
| 1777559127 | 13.33° C | 67% | 1020.2 hPa | 0 mm | - | 191 W/m² | - |
| 1777558827 | 12.78° C | 70% | 1020.2 hPa | 0 mm | - | 180 W/m² | - |
| 1777558523 | 12.78° C | 71% | 1020.2 hPa | 0 mm | - | 178 W/m² | - |
| 1777558219 | 12.78° C | 72% | 1020.2 hPa | 0 mm | - | 174 W/m² | - |
| 1777557915 | 12.78° C | 70% | 1020.5 hPa | 0 mm | - | 153 W/m² | - |
| 1777557613 | 12.78° C | 71% | 1020.2 hPa | 0 mm | - | 182 W/m² | - |
| 1777557309 | 12.22° C | 72% | 1020.2 hPa | 0 mm | - | 211 W/m² | - |
| 1777557005 | 12.22° C | 71% | 1020.2 hPa | 0 mm | - | 191 W/m² | - |
* Rain latest hour (hover to see other rain measurements)
** Current wind speed in m/s (hover to see current wind gust speed)